Voltar ao catálogo

COSMOS 970 DEB

AtivoLEO
NORAD 64980·DEBRIS·🇷🇺 Russia

Lançado Dec 21, 1977 de Baikonur Cosmodrome

Loading…

Próximas Passagens (próximas 24 horas)

TLE

EnvelhecendoSource: Space-Track

Época: Sep 12, 2026, 10:12 UTC

1 64980U 77121CR  26255.42567222  .00000216  00000-0  30701-3 0  9998
2 64980  65.8312 136.3168 0111833 122.9959  50.9847 13.72879322119228

Acompanhe COSMOS 970 DEB em tempo real com AllMySat

Download on the App Store